GFSSGP_sfc_dewp_168.txt.gz
Dewpoint
58 56 46 37 22 26 20 17 33 25 25 48 51 43 46 51 48 44 63 66 67 69 71 72 73 73 72 72 71 71 71 71 71 70 70 70 70 70 70 70 69 69 69 69 69 69 69 69 69
54 55 42 37 18 14 15 26 23 24 32 24 48 51 52 48 60 61 64 68 68 70 71 71 73 73 73 72 72 72 71 70 69 69 69 70 69 68 67 67 68 68 69 69 69 68 68 68 68
53 49 31 30 24 14 13 18 21 22 23 28 28 54 56 55 62 62 64 68 69 69 70 71 73 73 72 72 71 70 70 69 69 69 68 68 67 66 65 65 65 65 66 67 65 65 64 66 67
48 41 36 29 24 29 20 20 22 27 25 31 52 45 57 62 62 64 68 69 68 69 70 72 73 73 72 72 70 69 69 68 67 66 66 65 65 64 63 63 63 63 64 63 62 63 64 64 63
45 39 24 28 30 32 31 29 29 23 23 22 36 44 54 63 67 68 68 68 67 69 70 71 73 72 72 70 69 68 67 66 65 64 63 62 61 60 60 60 61 61 61 61 60 61 61 60 60
42 38 27 20 22 26 25 24 22 21 22 25 35 51 53 64 67 68 68 66 67 68 70 70 71 71 71 69 68 67 66 64 62 61 60 59 60 60 60 60 60 60 59 59 58 58 59 58 59
39 35 26 25 26 26 26 27 30 24 27 27 44 45 53 61 66 67 67 67 68 68 69 69 68 69 69 68 66 65 63 61 60 59 59 60 60 59 59 59 58 58 57 57 57 56 56 58 59
44 40 34 30 30 25 29 30 30 30 31 31 50 46 49 59 65 65 65 65 66 66 65 65 65 64 63 63 64 63 61 59 58 59 61 62 59 57 58 58 56 56 57 57 57 58 59 59 59
45 36 31 32 32 28 35 37 37 37 32 34 41 49 53 56 63 62 62 62 62 63 64 63 62 60 59 58 59 61 60 60 59 60 61 57 53 52 54 58 58 57 57 57 57 57 56 57 61
39 35 31 36 36 36 40 40 39 38 36 36 38 43 57 59 62 61 61 61 61 61 62 62 60 57 56 56 55 55 52 50 52 53 50 50 51 52 53 52 54 54 53 54 56 56 56 55 56
38 35 35 37 37 38 38 37 38 38 37 37 35 37 42 56 61 61 61 61 60 60 60 59 57 55 53 53 52 51 49 49 50 50 51 49 49 49 45 42 42 43 47 43 50 54 54 53 54
36 39 39 40 40 39 38 40 39 39 37 39 39 39 38 39 56 61 61 60 59 59 58 57 54 51 52 52 50 49 48 48 49 50 50 48 46 44 42 40 38 38 41 41 48 52 52 53 53
36 37 37 38 38 37 37 37 38 38 38 39 39 39 39 48 51 59 60 59 57 57 56 54 51 49 51 50 49 49 48 47 48 49 49 48 46 43 41 37 33 32 36 39 49 51 51 51 52
36 36 36 36 35 35 35 35 37 36 37 37 38 38 38 46 51 58 55 55 55 55 53 53 49 49 50 49 49 48 47 46 47 48 47 47 45 43 41 37 33 31 32 37 50 51 50 50 50
39 37 36 35 36 36 37 35 35 36 37 36 36 36 37 46 54 56 54 53 53 52 52 51 49 50 49 48 48 48 46 46 46 46 46 46 46 43 39 36 32 29 30 38 49 49 48 48 49
34 33 30 31 34 35 37 28 30 30 35 35 36 36 36 46 55 56 52 52 51 51 50 50 49 49 48 48 48 47 46 45 44 44 43 44 44 40 35 34 33 30 30 32 40 45 47 47 46
32 27 28 29 32 32 35 28 30 32 32 33 35 35 40 51 56 55 52 52 51 51 49 49 49 49 48 48 48 47 45 45 44 43 41 41 41 36 33 31 31 30 29 29 30 33 43 40 35
22 27 28 28 29 31 31 32 32 33 33 33 34 35 37 50 54 54 52 52 51 51 49 49 49 49 48 49 48 47 45 44 43 42 40 39 39 35 33 31 30 29 30 29 28 28 32 31 30
31 31 29 29 30 31 31 30 30 31 32 32 32 32 33 39 52 54 52 52 51 52 49 49 49 49 49 48 47 46 45 44 42 41 40 39 38 36 32 32 31 31 30 28 27 29 29 32 31
34 31 30 30 30 31 32 30 30 30 28 30 32 32 33 40 50 51 51 51 51 50 50 50 49 49 49 49 49 48 47 46 44 42 40 40 38 37 33 31 31 31 30 30 28 28 26 27 32
33 30 28 28 30 30 29 27 27 27 26 27 29 32 33 39 48 49 49 49 51 50 49 49 49 49 49 48 48 48 48 47 45 43 42 40 37 36 34 33 32 32 32 31 28 28 27 25 28
30 32 32 31 31 25 29 20 22 23 23 26 28 28 29 32 48 49 49 50 50 49 51 49 49 49 49 48 48 47 47 46 46 45 44 42 39 37 37 36 35 35 34 32 30 30 30 29 27
32 33 34 34 32 30 30 26 22 25 23 24 26 27 27 28 47 48 49 50 50 51 50 48 48 48 48 48 48 47 46 46 47 46 44 43 42 40 39 38 36 35 36 33 32 32 31 32 30
37 35 34 35 32 23 23 26 21 22 23 24 26 27 28 34 47 48 49 51 50 51 49 47 47 47 48 47 47 46 45 46 46 45 45 45 45 44 42 41 39 39 38 36 35 34 33 33 32
36 34 20 14 10 15 27 27 24 24 25 28 28 28 29 35 46 47 47 48 49 49 49 48 46 47 47 47 46 46 45 46 46 45 45 44 44 44 44 43 41 41 40 39 38 36 35 34 34
31 30 26 18 15 19 28 25 25 28 30 31 30 31 31 43 45 46 47 48 48 48 48 46 45 46 46 46 46 46 45 45 44 43 43 44 43 42 43 44 43 42 41 41 39 38 38 36 36
30 28 31 30 27 24 23 24 28 28 31 37 31 36 40 43 44 45 46 47 47 47 46 46 45 45 45 45 46 46 45 44 44 44 44 44 43 43 42 41 41 41 40 40 39 39 38 37 36
33 31 28 26 21 20 20 24 29 27 29 34 39 41 42 43 44 45 45 47 46 48 49 48 45 44 45 45 46 46 46 45 45 44 44 44 43 43 41 41 40 38 37 37 37 36 36 35 35
28 29 32 33 29 24 22 24 34 30 34 34 36 41 41 43 43 45 46 47 47 47 48 47 46 45 45 45 45 45 45 45 45 44 44 43 40 39 37 36 35 34 33 32 31 31 31 31 32
29 27 30 28 22 27 27 26 28 35 37 38 37 43 43 44 45 44 46 47 46 46 47 47 46 45 45 45 46 45 45 44 44 43 39 36 34 34 33 30 26 26 26 25 24 24 26 28 27

GFSSGP_sfc_dewp_174.txt.gz
Dewpoint
53 49 46 40 21 21 13 16 22 25 26 37 28 37 38 44 42 41 65 65 64 63 65 70 74 73 72 72 71 71 71 71 70 70 71 71 71 70 70 70 70 69 69 70 69 69 69 69 69
51 46 42 32 11 9 6 18 18 21 25 30 28 41 48 44 57 59 63 65 64 63 65 70 74 73 72 72 71 71 71 71 71 71 71 71 69 68 67 68 69 69 69 68 67 67 67 68 68
48 44 29 21 12 4 4 17 19 22 24 30 31 38 44 49 59 61 64 66 64 64 65 67 73 73 73 72 72 72 72 71 70 71 70 69 67 66 65 66 67 67 67 65 65 65 65 64 64
43 37 32 14 9 15 13 16 21 23 22 23 25 23 43 61 60 62 65 66 65 64 65 70 73 73 73 72 72 71 71 70 69 69 68 67 66 66 65 64 64 64 63 62 63 63 62 61 61
42 31 11 14 14 19 21 23 26 21 18 19 27 24 33 57 61 65 67 66 65 65 66 68 73 73 73 72 72 71 70 69 68 67 67 65 64 63 62 61 61 61 61 61 61 60 60 60 59
31 30 10 7 7 16 17 16 19 15 17 18 21 33 38 53 57 63 67 67 66 66 67 68 71 72 72 71 71 70 69 68 67 65 64 62 61 61 61 61 60 59 59 58 58 58 59 59 59
28 22 13 14 12 15 13 25 18 20 18 18 32 33 34 45 52 64 67 67 67 66 67 68 68 70 70 70 70 69 67 66 64 62 62 61 61 61 60 59 59 58 58 57 57 57 58 60 63
40 30 25 21 13 16 22 30 32 30 24 34 36 22 35 46 49 64 67 67 67 67 68 67 68 69 68 67 68 67 66 64 62 62 62 62 61 60 59 58 57 57 57 58 59 59 59 62 63
45 26 18 20 21 16 30 28 25 37 34 29 31 35 41 44 43 47 61 65 67 66 68 69 69 67 66 65 63 63 63 63 63 62 59 56 51 52 53 60 60 59 58 59 58 58 61 63 62
35 26 17 25 25 23 26 31 29 31 27 28 30 30 32 35 38 41 46 57 63 66 66 66 65 63 62 61 61 59 56 55 54 55 52 49 51 51 52 55 56 56 59 59 58 60 60 59 54
37 28 30 27 30 32 32 31 31 30 29 26 25 29 31 35 34 37 41 47 58 64 65 64 64 62 60 59 58 54 51 52 52 53 52 51 52 49 47 47 47 47 50 50 52 53 51 52 53
34 34 34 34 34 35 31 31 31 31 30 29 31 30 32 34 34 35 35 39 55 62 64 63 62 61 59 57 54 49 47 50 50 51 51 51 51 50 46 44 47 47 47 50 51 50 52 53 53
35 32 33 34 35 34 34 32 31 31 32 31 32 33 33 34 33 34 34 35 41 57 62 63 61 58 56 55 51 48 47 49 49 50 50 50 50 48 45 42 42 43 46 49 50 50 51 51 52
35 36 35 36 35 34 33 32 31 30 30 30 31 32 33 33 33 34 32 37 39 48 61 61 59 57 54 54 52 49 48 49 49 50 49 48 48 46 43 41 40 40 45 50 50 50 51 51 51
37 35 33 32 32 32 34 30 30 32 31 30 29 29 32 33 34 33 34 37 38 47 61 59 58 56 52 52 51 50 49 49 49 49 49 48 46 44 42 39 38 38 44 49 50 49 48 47 46
32 32 30 29 31 31 33 27 27 29 29 28 29 30 32 34 35 35 35 33 35 42 59 58 57 54 51 51 50 49 49 49 48 48 48 46 45 44 41 37 36 36 42 48 48 48 46 45 45
31 31 28 28 30 30 31 29 28 30 30 29 29 29 29 32 34 36 37 39 38 41 58 57 56 54 52 51 49 49 49 49 48 47 47 46 43 40 37 34 33 33 35 39 41 44 43 36 33
29 28 27 28 28 30 30 29 30 30 30 30 29 29 30 30 32 33 35 40 45 49 58 56 54 54 52 50 49 49 48 47 47 46 46 45 40 37 35 33 32 30 31 31 33 32 32 32 31
31 31 30 30 31 31 29 29 29 29 29 29 29 30 30 30 32 34 35 42 55 56 57 55 53 53 52 50 47 47 46 46 45 44 44 42 40 37 36 33 31 31 29 29 29 31 32 32 33
32 30 31 30 30 30 30 29 29 29 29 29 29 29 30 31 31 31 36 40 53 56 56 53 52 51 52 51 48 48 46 45 45 44 43 42 38 37 34 34 33 33 32 31 31 31 30 32 34
32 30 29 30 31 31 29 26 23 24 26 26 28 29 31 32 31 31 33 43 52 55 55 53 52 52 51 51 49 48 47 45 44 43 43 41 38 37 36 35 33 34 34 34 35 35 32 32 33
31 30 31 31 32 27 30 24 25 24 25 27 28 28 29 31 31 32 32 44 51 54 55 53 52 53 52 51 49 48 46 44 44 43 42 40 38 37 38 38 37 38 37 36 36 35 35 36 33
32 33 34 34 32 31 28 29 21 21 23 29 31 32 33 30 30 30 32 43 53 54 54 53 51 51 52 51 49 48 46 46 44 43 42 40 39 39 39 40 40 39 39 39 39 39 39 38 38
34 34 32 37 33 26 23 25 19 20 25 29 30 32 36 35 29 30 32 44 52 54 53 52 51 51 51 51 49 48 48 47 45 43 42 42 41 42 42 41 42 41 40 41 40 41 41 40 40
35 31 27 25 26 21 21 24 22 23 29 31 32 33 36 39 30 30 33 45 51 52 52 52 51 50 51 50 48 48 48 48 46 44 43 43 44 43 43 43 43 43 43 42 42 42 42 41 40
30 30 27 21 19 23 21 23 18 26 31 32 34 36 38 37 31 31 38 47 50 52 51 51 51 50 50 49 47 48 48 48 46 45 45 45 45 46 45 45 44 43 43 43 43 43 42 42 42
30 30 31 31 24 25 19 20 23 26 31 34 35 38 38 39 32 32 42 48 50 51 51 51 51 50 49 50 47 46 46 46 46 46 46 45 46 46 46 45 44 43 43 42 42 41 39 39 39
31 32 31 29 22 17 15 15 24 25 31 35 36 38 37 40 35 39 45 48 50 51 51 52 51 50 49 48 47 46 45 45 45 44 44 44 43 44 43 43 42 42 40 39 37 35 34 32 35
27 28 32 34 30 23 18 17 22 30 30 35 37 38 41 40 41 43 46 49 49 50 50 50 50 49 48 48 46 45 45 44 44 44 44 43 43 42 41 38 36 34 31 30 28 28 28 26 26
27 26 28 29 25 28 27 21 30 29 30 35 37 41 43 42 42 44 46 49 49 50 50 49 49 47 47 46 45 44 44 44 44 44 43 43 41 38 35 32 27 24 22 21 21 21 22 21 22

GFSSGP_sfc_dewp_177.txt.gz
Dewpoint
51 42 40 38 24 15 15 13 15 21 22 33 28 32 38 41 41 49 63 64 63 61 65 71 73 72 72 71 71 71 70 71 70 69 70 70 70 70 70 70 70 69 70 70 70 69 69 69 69
47 39 38 29 15 10 9 7 17 18 25 26 32 35 36 39 55 56 61 65 64 61 65 69 73 72 72 72 71 71 71 71 71 71 70 70 70 69 69 70 69 69 69 68 68 68 68 68 67
42 39 30 20 14 5 6 16 16 21 21 23 26 31 33 48 56 58 62 65 63 61 63 68 73 72 72 72 72 71 71 71 71 71 71 69 67 66 66 66 68 68 67 66 66 66 65 64 64
37 34 23 11 10 11 13 11 16 19 19 21 21 22 35 57 54 58 63 65 62 61 63 72 73 73 72 72 72 72 71 71 71 70 68 67 66 66 66 65 65 65 64 63 64 62 61 61 61
35 25 16 15 11 8 15 14 15 15 12 12 17 21 27 50 53 59 63 65 63 61 65 69 73 72 72 72 72 72 71 70 70 68 67 67 66 64 63 62 62 62 61 61 61 60 60 60 58
30 23 12 10 8 9 13 10 14 10 8 13 15 18 26 46 48 58 64 66 65 65 67 68 71 72 72 72 72 71 70 69 68 67 66 64 62 62 62 61 60 60 59 59 59 59 60 59 60
29 23 15 15 11 10 12 14 17 16 17 13 23 23 23 44 46 60 65 66 67 66 67 67 68 69 71 71 71 70 69 68 67 65 63 62 61 61 61 60 60 59 58 58 57 58 60 62 63
36 26 17 15 13 14 14 22 19 24 21 23 26 20 18 42 45 45 56 60 67 67 67 68 69 68 68 69 69 69 68 67 65 64 63 63 63 61 60 59 58 58 57 58 59 59 61 63 63
37 25 16 14 16 15 18 22 23 21 28 28 24 24 27 30 33 39 47 54 59 66 66 68 69 68 69 67 66 66 65 64 64 63 62 60 53 54 55 61 61 59 59 59 58 61 63 63 61
33 25 18 19 19 20 21 22 24 26 26 24 22 24 28 29 30 33 40 47 52 57 65 67 68 68 67 64 64 62 60 59 57 54 53 48 49 51 53 57 60 60 60 59 59 61 62 61 54
34 26 25 25 23 29 28 27 27 26 26 26 25 23 24 27 31 34 34 40 47 51 63 67 67 67 65 62 63 60 58 56 53 52 49 48 51 50 49 50 48 50 57 52 54 55 52 51 51
31 28 30 31 31 32 31 31 30 29 28 28 28 28 29 29 28 32 32 36 41 51 55 65 66 65 64 63 60 58 55 52 50 51 50 50 51 50 47 45 47 47 47 49 49 49 50 51 50
34 32 32 32 33 33 33 32 30 29 29 30 30 30 30 30 30 31 32 31 34 41 52 63 64 63 62 60 60 54 51 48 47 49 49 50 50 50 46 44 44 44 46 48 49 48 49 49 50
34 35 34 34 33 33 32 31 31 29 29 29 29 29 29 29 30 31 32 31 30 33 45 62 63 62 62 59 57 52 49 47 47 48 49 49 49 48 45 42 42 42 46 48 48 48 49 49 49
35 34 33 33 31 31 31 29 28 28 29 29 29 29 30 29 29 30 32 33 31 30 42 59 62 62 60 59 54 53 51 47 47 48 48 47 47 46 43 43 41 41 46 47 49 47 46 45 44
33 32 31 28 31 29 30 27 26 28 28 28 28 28 29 31 30 30 31 32 32 32 35 55 60 60 58 57 55 54 52 49 48 48 47 46 45 43 42 40 40 40 46 48 47 46 44 43 43
33 31 26 26 29 29 29 28 28 29 29 29 28 29 29 30 31 31 33 34 33 31 33 50 60 58 56 56 56 53 51 50 48 48 48 46 44 42 40 37 37 38 42 44 44 44 41 37 36
27 27 26 27 27 30 30 29 29 28 27 27 27 27 28 30 31 31 30 34 35 35 37 51 58 57 55 56 56 55 54 50 48 48 48 45 42 40 39 37 35 34 37 37 38 35 34 34 34
30 30 29 29 30 30 29 28 28 28 27 27 26 26 27 28 31 33 33 35 37 38 43 56 56 55 54 54 53 52 51 52 48 48 47 43 41 40 39 37 34 35 33 34 31 35 36 38 38
31 30 30 28 28 28 29 28 28 25 25 25 26 26 27 29 29 32 34 34 36 40 51 56 55 53 53 53 54 54 51 49 47 47 45 43 41 41 37 37 36 36 35 34 35 38 36 38 39
31 30 28 28 28 29 28 26 21 22 24 25 27 30 31 32 31 31 32 34 38 41 55 54 54 53 53 53 53 53 51 48 46 45 45 42 39 39 39 38 37 38 39 39 40 41 39 39 39
34 29 27 29 30 26 31 24 24 23 21 21 27 30 31 33 36 32 32 33 38 42 55 53 53 53 53 53 52 50 48 46 46 45 44 42 40 39 40 40 40 41 41 41 40 39 42 43 40
30 31 31 32 33 33 27 29 21 20 16 21 27 30 31 34 34 37 32 35 37 47 54 54 52 52 53 53 52 51 50 48 45 44 42 41 40 41 41 41 42 42 42 43 43 43 43 43 43
32 32 31 38 34 26 22 23 20 19 19 22 26 31 34 36 36 38 33 34 36 52 55 53 52 52 52 52 52 52 51 48 45 43 41 41 41 42 42 42 43 42 43 43 44 45 44 43 43
31 28 27 25 27 22 17 19 19 19 20 24 31 33 35 38 38 38 32 32 37 53 53 52 52 52 52 52 53 52 49 47 45 44 43 42 43 43 43 44 44 44 44 44 44 44 44 43 42
27 29 27 20 18 22 21 20 17 19 21 30 32 33 36 39 39 38 34 35 45 53 52 51 51 51 52 52 52 52 51 47 45 45 44 44 44 44 45 45 45 44 44 44 44 44 44 44 44
26 29 31 29 24 22 18 16 17 21 27 30 30 34 38 39 39 36 33 37 51 51 51 51 50 51 51 51 51 49 48 47 45 45 45 46 46 45 45 45 44 44 44 43 43 42 40 40 41
29 28 27 28 22 17 16 15 25 22 28 29 28 36 39 42 41 34 33 44 49 51 51 51 51 50 50 50 50 48 46 45 45 45 45 46 46 45 45 44 43 43 42 40 38 37 35 35 35
23 27 33 33 30 24 19 18 19 24 27 29 34 38 41 44 38 35 42 47 49 51 51 51 51 50 50 50 49 47 45 45 44 43 43 43 43 43 42 41 39 36 34 31 30 30 29 28 29
24 24 23 27 23 27 25 22 20 24 26 31 35 38 43 43 42 46 47 49 50 50 50 51 50 48 48 49 49 47 44 43 43 43 43 42 42 40 37 33 29 23 23 23 21 22 22 23 24

GFSSGP_sfc_dewp_180.txt.gz
Dewpoint
51 44 40 43 35 26 21 21 14 22 24 28 31 26 29 43 49 54 63 64 63 66 69 71 72 72 71 69 69 71 71 71 71 69 69 70 70 71 70 70 70 69 70 70 70 69 69 69 69
50 41 43 40 24 20 16 17 20 24 23 22 28 34 33 51 55 59 62 64 65 64 69 69 72 72 71 70 71 71 71 71 71 71 71 71 71 70 70 70 69 69 69 69 68 67 67 67 67
42 38 41 29 22 13 14 18 19 20 21 22 22 25 33 54 54 57 61 64 65 63 68 69 73 72 72 72 72 71 71 71 72 71 71 70 68 67 66 67 69 67 66 67 67 66 64 64 64
40 41 32 21 17 15 13 15 19 20 18 22 20 20 49 53 53 58 62 64 64 61 67 72 73 72 72 72 72 72 71 71 71 71 69 68 67 66 66 67 66 65 65 65 64 62 62 61 60
41 35 23 21 17 13 14 15 11 12 12 9 14 17 31 47 52 59 64 65 65 65 66 71 73 72 72 72 72 72 72 71 71 69 68 66 66 66 65 64 64 63 62 62 61 61 60 59 59
38 29 21 16 14 13 13 13 15 16 13 12 16 19 26 47 53 61 65 65 66 66 69 71 72 72 72 72 72 72 71 71 69 68 67 66 65 63 62 62 61 61 60 60 60 60 59 60 62
36 30 23 18 17 13 13 18 18 19 21 17 25 22 26 45 46 50 61 63 67 68 67 69 71 70 70 71 71 71 71 70 69 67 65 64 63 62 61 60 60 60 59 59 59 60 62 62 64
39 31 19 18 16 17 18 22 22 19 20 26 24 22 21 41 44 43 49 57 58 66 68 68 69 69 69 70 70 70 69 68 67 66 65 64 64 63 61 61 59 58 58 59 59 60 63 63 63
39 32 22 17 16 17 17 18 20 22 23 23 25 26 25 25 33 35 43 48 55 60 65 67 67 68 68 69 68 68 67 66 65 64 63 62 58 59 59 61 61 61 60 60 60 62 63 63 61
35 30 24 24 23 21 23 25 25 24 25 25 26 26 26 27 30 34 37 43 46 51 56 65 67 67 68 67 66 64 62 62 61 60 59 56 53 54 57 60 62 62 61 60 61 62 62 61 55
35 31 28 28 28 31 30 30 30 28 27 26 25 26 27 26 29 32 35 39 42 47 57 62 66 67 67 65 65 62 60 60 58 54 54 51 52 53 55 54 56 58 59 56 58 59 59 58 52
33 30 30 32 32 32 31 31 30 30 29 30 29 29 29 29 30 32 32 37 38 43 52 61 65 65 65 65 65 63 59 58 54 53 51 51 51 50 50 50 50 50 53 52 53 53 50 50 49
34 34 33 34 34 33 33 32 32 31 32 32 30 30 30 31 30 32 33 33 34 38 50 60 63 64 64 64 65 63 58 54 51 51 50 52 51 50 48 47 47 46 48 49 50 49 50 49 49
35 35 34 35 34 33 31 30 31 30 30 30 29 30 30 30 30 31 32 32 33 34 40 59 61 62 63 63 63 61 57 50 49 50 50 51 52 49 46 44 44 45 47 49 49 49 50 50 49
36 34 34 33 33 31 31 29 29 29 29 28 29 29 30 31 31 30 31 32 33 34 36 52 61 61 61 61 60 60 59 54 49 50 49 49 50 47 45 44 43 43 47 49 49 48 47 46 46
33 33 31 29 30 32 31 26 28 29 28 28 28 29 29 31 32 31 32 31 32 34 34 42 62 62 61 59 58 58 59 57 51 49 48 47 47 45 43 43 42 44 48 49 48 46 45 44 45
34 28 26 27 29 30 30 28 30 30 30 29 28 28 29 30 31 31 32 33 33 33 34 36 60 60 58 57 56 57 57 57 56 50 48 46 45 43 42 41 40 42 46 47 45 44 42 37 33
26 26 27 27 29 30 29 28 29 29 29 29 28 27 28 29 31 32 33 33 36 36 35 38 59 57 56 56 56 56 56 56 56 53 48 45 44 42 39 38 38 39 40 38 39 34 34 34 31
30 30 29 30 30 29 27 27 28 29 29 28 27 27 27 29 31 33 34 35 35 36 38 40 57 55 55 54 54 54 54 55 55 52 46 43 42 40 38 37 35 36 35 33 32 33 34 36 36
30 30 29 30 29 27 27 28 30 29 27 25 26 27 28 30 32 33 34 35 36 36 40 46 56 54 54 53 53 54 54 54 54 53 45 43 41 40 37 36 36 34 34 32 32 33 35 35 36
31 30 29 27 29 30 29 26 25 26 25 25 26 29 31 33 33 35 37 34 36 36 42 54 55 54 53 53 53 53 52 51 50 51 47 42 40 40 39 37 37 37 39 38 36 35 36 35 36
30 29 28 30 30 26 30 24 26 25 23 22 24 28 30 35 36 37 37 37 36 37 47 55 54 54 53 53 52 51 50 48 49 47 46 41 39 39 40 40 40 40 41 39 38 39 39 39 36
30 31 31 31 30 30 28 29 25 24 21 20 23 27 34 35 36 36 37 37 38 39 52 54 53 53 53 53 52 51 49 49 49 48 42 40 41 41 41 41 41 42 42 41 41 41 42 42 41
32 31 29 30 30 20 25 27 24 19 17 20 27 33 33 33 34 37 39 39 39 44 53 53 53 53 53 52 51 50 49 49 48 46 41 40 41 42 42 42 42 42 43 43 44 43 42 41 40
29 27 20 16 15 18 20 21 18 21 26 30 31 30 31 35 37 39 40 40 38 51 52 52 52 52 52 52 51 50 50 49 46 45 41 41 42 42 43 43 43 43 43 44 44 43 42 41 40
27 27 19 15 16 20 23 21 21 20 28 29 29 31 35 35 38 41 41 40 44 51 52 51 52 51 52 51 51 51 50 49 47 44 42 42 43 43 44 44 44 44 44 44 43 43 43 42 40
27 25 30 28 26 21 21 19 19 23 29 29 30 32 35 37 40 43 43 37 51 51 50 51 51 51 51 52 52 51 50 49 47 44 43 44 44 44 45 44 44 43 43 43 41 40 39 39 38
28 28 25 26 19 15 17 18 22 21 28 29 30 30 34 38 41 44 37 47 51 50 50 51 51 51 52 52 51 51 49 47 46 44 45 45 44 45 44 44 43 42 40 38 36 36 36 32 32
26 28 29 32 28 16 18 17 20 21 27 30 32 34 37 39 44 44 43 49 50 51 51 50 51 51 51 51 51 50 47 48 46 45 45 45 44 43 43 42 39 37 34 32 31 30 30 29 29
21 21 21 21 19 23 22 21 23 23 27 32 33 38 41 43 46 48 48 49 49 50 50 50 50 50 50 49 50 48 46 44 44 43 44 43 42 41 38 34 29 26 25 22 22 22 24 25 26